sat.trackr.live / text

‹ back to catalog

STARLINK-2433

NORAD 47841 · 2021-018BG

PAYLOAD ACTIVE UNKNOWN

§ Identity

Operator
Country
US
Launch date
2021-03-11
Launch site
AFETR
Launch vehicle
Mass (kg)
RCS (m²)

Purposes: comms

External: N2YO · Heavens-Above · Gunter

§ Orbital elements

Epoch: 2026-09-19T23:30:19.589760Z

Period
94.01 min
Inclination
53.1583°
Eccentricity
0.0001143
Mean motion
15.31715368 rev/d
Perigee alt
469.9 km
Apogee alt
471.5 km
Semi-major
6,848.8 km
B*
1.6515e-4
RAAN
54.8700°
Arg perigee
82.8777°
Mean anomaly
277.2354°
Rev number
30,653

§ Raw data

STARLINK-24331 47841U 21018BG  26262.97939340  .00004765  00000+0  16515-3 0  99902 47841  53.1583  54.8700 0001143  82.8777 277.2354 15.31715368306530

JSON: /api/v1/satellites/47841 · /tle

For live sub-satellite position, see the globe view (requires WebGL).

§ Visibility from observer

Set your observer location to see the next 7 days of passes ≥ 10°. The values pass through the URL so the page stays shareable.

No JS? Fill the form by hand. The geolocation button needs JavaScript.